TimeCST,TemperatureF,Dew PointF,Humidity,Sea Level PressureIn,VisibilityMPH,Wind Direction,Wind SpeedMPH,Gust SpeedMPH,PrecipitationIn,Events,Conditions,WindDirDegrees,DateUTC
12:53 AM,37.9,24.1,57,30.31,10.0,WSW,6.9,-,N/A,,Clear,250,2013-12-28 06:53:00
1:53 AM,33.1,23.0,66,30.30,10.0,WSW,3.5,-,N/A,,Clear,250,2013-12-28 07:53:00
2:53 AM,30.0,23.0,75,30.29,10.0,Calm,Calm,-,N/A,,Clear,0,2013-12-28 08:53:00
3:53 AM,27.0,21.9,81,30.27,10.0,Calm,Calm,-,N/A,,Clear,0,2013-12-28 09:53:00
4:53 AM,28.0,21.9,78,30.27,10.0,SW,3.5,-,N/A,,Clear,230,2013-12-28 10:53:00
5:53 AM,30.0,24.1,79,30.27,10.0,Calm,Calm,-,N/A,,Clear,0,2013-12-28 11:53:00
6:53 AM,28.9,23.0,78,30.26,10.0,Calm,Calm,-,N/A,,Clear,0,2013-12-28 12:53:00
7:53 AM,28.9,23.0,78,30.26,10.0,Calm,Calm,-,N/A,,Clear,0,2013-12-28 13:53:00
8:53 AM,39.0,30.9,73,30.25,10.0,Calm,Calm,-,N/A,,Clear,0,2013-12-28 14:53:00
9:53 AM,42.1,30.0,62,30.25,10.0,SSE,3.5,-,N/A,,Clear,160,2013-12-28 15:53:00
10:53 AM,50.0,28.9,44,30.22,10.0,SE,3.5,-,N/A,,Clear,130,2013-12-28 16:53:00
11:53 AM,52.0,27.0,38,30.19,10.0,South,8.1,-,N/A,,Clear,170,2013-12-28 17:53:00
12:53 PM,53.1,28.0,38,30.14,10.0,South,8.1,-,N/A,,Clear,190,2013-12-28 18:53:00
1:53 PM,52.0,26.1,37,30.10,10.0,SW,9.2,-,N/A,,Clear,220,2013-12-28 19:53:00
2:53 PM,51.1,25.0,36,30.07,10.0,South,6.9,-,N/A,,Clear,170,2013-12-28 20:53:00
3:53 PM,50.0,26.1,39,30.06,10.0,SSE,9.2,-,N/A,,Clear,160,2013-12-28 21:53:00
4:53 PM,46.0,30.0,54,30.06,10.0,SSE,6.9,-,N/A,,Clear,150,2013-12-28 22:53:00
5:53 PM,44.1,30.9,60,30.04,10.0,South,6.9,-,N/A,,Mostly Cloudy,170,2013-12-28 23:53:00
6:53 PM,43.0,30.9,62,30.04,10.0,South,3.5,-,N/A,,Overcast,170,2013-12-29 00:53:00
7:53 PM,43.0,30.9,62,30.01,10.0,SSE,5.8,-,N/A,,Overcast,160,2013-12-29 01:53:00
8:53 PM,42.1,32.0,67,29.99,10.0,South,6.9,-,N/A,,Overcast,170,2013-12-29 02:53:00
9:53 PM,41.0,32.0,70,29.98,10.0,South,3.5,-,N/A,,Overcast,180,2013-12-29 03:53:00
10:53 PM,39.9,32.0,73,29.97,10.0,SSE,4.6,-,N/A,,Mostly Cloudy,160,2013-12-29 04:53:00
11:53 PM,37.9,30.9,76,29.96,10.0,South,3.5,-,N/A,,Overcast,180,2013-12-29 05:53:00